[[{"header":{"parameterUnit":"m.s-1","parameterCategory":1,"la1":30.2991,"la2":30.254,"lo1":-89.0895,"lo2":-89.0444,"dy":0.0017,"dx":0.0017,"nx":28,"ny":28,"refTime":"2024-05-02T21:00:00:Z","depth":0,"parameterNumber":2,"parameterNumberName":"U-component_of_WINDS"},"data":[0,0,0,0,0,0,0,0,0,0,0,0,0,0,0,0,0,0,0,0,0,0,0,0,0,0,0,0,0,0,0,0,0,0,0,0,0,0,0,0,0,0,0,0,0,0,0,0,0,0,0,0,0,0,0,0,0,0,-0.2812,-0.2813,0,-0.282,-0.282,-0.282,-0.2819,-0.2819,-0.2819,-0.2819,-0.2827,-0.2827,-0.2828,0,0,0,0,0,0,0,0,0,0,0,0,0,-0.28,-0.28,-0.2812,-0.2813,-0.2813,-0.282,-0.282,-0.282,-0.2819,-0.2819,-0.2819,-0.2819,-0.2827,-0.2827,-0.2828,0,0,0,0,0,0,0,0,0,0,0,0,0,-0.2806,-0.28,-0.2812,-0.2813,-0.2813,-0.282,-0.282,-0.282,-0.2819,-0.2819,-0.2819,-0.2819,-0.2827,-0.2827,-0.2828,-0.2834,0,0,-0.2829,-0.2829,0,0,0,0,0,0,0,0,-0.2806,-0.2806,-0.2813,-0.2813,-0.2813,-0.2818,-0.2818,-0.2825,-0.2819,-0.2817,-0.2819,-0.2819,-0.2824,-0.2825,-0.2827,-0.2834,-0.2835,-0.2829,-0.2829,-0.283,-0.283,0,0,0,0,0,0,0,-0.2805,-0.2806,-0.2815,-0.2813,-0.2813,-0.2814,-0.2814,-0.2819,-0.2822,-0.2817,-0.2817,-0.2818,-0.2824,-0.2826,-0.2827,-0.2835,-0.2829,-0.283,-0.283,-0.283,-0.2849,-0.285,0,0,0,0,0,0,-0.2804,-0.2806,-0.2815,-0.2816,-0.2809,-0.2814,-0.2815,-0.2817,-0.2821,-0.2822,-0.2818,-0.2818,-0.2826,-0.2826,-0.2827,-0.2836,-0.283,-0.283,-0.283,-0.2849,-0.2849,-0.285,0,0,0,0,0,0,-0.2804,-0.2805,-0.2815,-0.2811,-0.2812,-0.2814,-0.2817,-0.2817,-0.2819,-0.2822,-0.2823,-0.282,-0.2825,-0.2826,-0.2833,-0.2836,-0.283,-0.2831,-0.2849,-0.2849,-0.285,-0.2852,0,0,0,0,0,0,-0.2804,-0.2805,-0.2807,-0.2811,-0.2812,-0.282,-0.2817,-0.2817,-0.282,-0.282,-0.2824,-0.2824,-0.2825,-0.2832,-0.2833,-0.2836,-0.2831,-0.2849,-0.2849,-0.2849,-0.2852,-0.2852,-0.2853,0,0,0,0,0,-0.2803,-0.2807,-0.2807,-0.2808,-0.2815,-0.282,-0.2821,-0.2822,-0.282,-0.2822,-0.2825,-0.2824,-0.2835,-0.2832,-0.2834,-0.2837,-0.2848,-0.2849,-0.2849,-0.2851,-0.2852,-0.2853,0,0,0,0,0,0,-0.2804,-0.2808,-0.2808,-0.2813,-0.2816,-0.282,-0.2822,-0.2822,-0.2826,-0.2826,-0.2827,-0.2828,-0.2835,-0.2837,-0.2833,-0.2844,-0.2842,-0.2843,-0.2843,-0.2844,-0.2844,-0.2844,-0.2831,0,0,0,0,0,-0.2804,-0.2808,-0.2811,-0.2816,-0.2817,-0.282,-0.2822,-0.2823,-0.2826,-0.2827,-0.283,-0.2834,-0.2838,-0.2841,-0.2845,-0.2852,-0.2853,-0.2855,-0.2856,-0.2857,-0.2857,-0.2862,-0.2863,-0.2851,-0.2851,-0.2851,0,0,-0.2806,-0.2808,-0.2811,-0.2816,-0.2818,-0.2823,-0.2821,-0.2825,-0.2828,-0.2828,-0.2834,-0.2836,-0.2841,-0.2847,-0.285,-0.2849,-0.2861,-0.2857,-0.2858,-0.2858,-0.2863,-0.2864,-0.2865,-0.2852,-0.2852,-0.2852,0,0,-0.2811,-0.2813,-0.2817,-0.282,-0.2824,-0.2826,-0.2827,-0.2831,-0.2832,-0.2838,-0.2839,-0.2843,-0.285,-0.2854,-0.2856,-0.2864,-0.2864,-0.2866,-0.2869,-0.2874,-0.2875,-0.2876,-0.2879,-0.288,-0.2866,-0.2866,-0.2866,0,-0.2812,-0.2818,-0.2819,-0.2824,-0.2827,-0.2827,-0.2832,-0.2835,-0.284,-0.2842,-0.2841,-0.2851,-0.2854,-0.2862,-0.2864,-0.2866,-0.2868,-0.2865,-0.2875,-0.2875,-0.2876,-0.288,-0.2881,-0.2867,-0.2867,-0.2867,-0.2867,0,-0.282,-0.2824,-0.2827,-0.2832,-0.2835,-0.284,-0.2843,-0.2846,-0.2847,-0.2849,-0.2856,-0.286,-0.2865,-0.2867,-0.2868,-0.2876,-0.2875,-0.2874,-0.2872,-0.2878,-0.2881,-0.2882,-0.2867,-0.2867,-0.2867,-0.2867,0,0,-0.2824,-0.2831,-0.2832,-0.2835,-0.284,-0.2844,-0.2849,-0.2854,-0.2857,-0.2862,-0.2867,-0.2874,-0.2873,-0.2876,-0.2878,-0.2882,-0.2889,-0.288,-0.2881,-0.2882,-0.2899,-0.2899,-0.2901,-0.2889,-0.2889,-0.2889,-0.2898,0,-0.2829,-0.2838,-0.284,-0.2848,-0.2853,-0.2854,-0.2859,-0.2863,-0.2866,-0.287,-0.2873,-0.2879,-0.2877,-0.2879,-0.2884,-0.2887,-0.2892,-0.2886,-0.2894,-0.2894,-0.2893,-0.2902,-0.2903,-0.2911,-0.29,-0.29,-0.29,0,-0.2837,-0.2841,-0.285,-0.2855,-0.2857,-0.2862,-0.2867,-0.2872,-0.2877,-0.2879,-0.2883,-0.2884,-0.2891,-0.2888,-0.2897,-0.2894,-0.2897,-0.2899,-0.29,-0.29,-0.2897,-0.2903,-0.2913,-0.2915,-0.2902,-0.2902,-0.2901,0,-0.2839,-0.2848,-0.2854,-0.2857,-0.2863,-0.2866,-0.2869,-0.2874,-0.2878,-0.2884,-0.2886,-0.2892,-0.2895,-0.2901,-0.2904,-0.2901,-0.2913,-0.2911,-0.2915,-0.2915,-0.2917,-0.2917,-0.2928,-0.292,-0.292,-0.292,-0.2919,0,-0.2845,-0.285,-0.2856,-0.2859,-0.2866,-0.2869,-0.2875,-0.2878,-0.2883,-0.2888,-0.289,-0.2895,-0.2899,-0.2905,-0.2907,-0.2915,-0.2916,-0.2919,-0.2919,-0.2918,-0.2918,-0.292,-0.292,-0.292,-0.292,-0.292,-0.292,0,-0.2849,-0.2853,-0.286,-0.2866,-0.2868,-0.2872,-0.2878,-0.2882,-0.2885,-0.2892,-0.2894,-0.2899,-0.2906,-0.291,-0.2918,-0.292,-0.2929,-0.2929,-0.2927,-0.2928,-0.2932,-0.2932,-0.2945,-0.2947,-0.2937,-0.2937,-0.2937,0,-0.2852,-0.2857,-0.2864,-0.2867,-0.287,-0.2876,-0.288,-0.2884,-0.2888,-0.2895,-0.2899,-0.2906,-0.2911,-0.2923,-0.2927,-0.2934,-0.2935,-0.2939,-0.2936,-0.2935,-0.2936,-0.2935,-0.2936,-0.294,-0.294,-0.294,-0.294,0,-0.2858,-0.286,-0.2866,-0.2872,-0.2877,-0.2882,-0.2887,-0.289,-0.2895,-0.29,-0.2907,-0.2912,-0.2921,-0.2928,-0.2936,-0.294,-0.2941,-0.2941,-0.2943,-0.2942,-0.2941,-0.2942,-0.2929,-0.2941,-0.2941,-0.2941,-0.2941,-0.2941,-0.2862,-0.2866,-0.2872,-0.2879,-0.2883,-0.2888,-0.2893,-0.2897,-0.2903,-0.2911,-0.2913,-0.2921,-0.2928,-0.2938,-0.2942,-0.2949,-0.2948,-0.295,-0.2951,-0.2951,-0.2952,-0.294,-0.295,-0.295,-0.295,-0.295,-0.295,0,-0.2869,-0.2873,-0.2879,-0.2886,-0.2892,-0.2893,-0.2899,-0.2903,-0.291,-0.2916,-0.2922,-0.2931,-0.2939,-0.2945,-0.2952,-0.2957,-0.2958,-0.2959,-0.2958,-0.2959,-0.2951,-0.295,-0.2958,-0.2958,-0.2958,-0.2958,-0.2958,-0.2958,-0.2872,-0.288,-0.2883,-0.2893,-0.2897,-0.2905,-0.2908,-0.2914,-0.2918,-0.2928,-0.2935,-0.2939,-0.2945,-0.2954,-0.2961,-0.2963,-0.2966,-0.2967,-0.2968,-0.2961,-0.296,-0.2959,-0.2957,-0.2967,-0.2967,-0.2976,-0.2976,-0.2976]},{"header":{"parameterUnit":"m.s-1","parameterCategory":1,"la1":30.2991,"la2":30.254,"lo1":-89.0895,"lo2":-89.0444,"dy":0.0017,"dx":0.0017,"nx":28,"ny":28,"refTime":"2024-05-02T21:00:00:Z","depth":0,"parameterNumber":3,"parameterNumberName":"V-component_of_WINDS"},"data":[0,0,0,0,0,0,0,0,0,0,0,0,0,0,0,0,0,0,0,0,0,0,0,0,0,0,0,0,0,0,0,0,0,0,0,0,0,0,0,0,0,0,0,0,0,0,0,0,0,0,0,0,0,0,0,0,0,0,3.1078,3.1077,0,3.1014,3.1013,3.1012,3.0927,3.0926,3.0925,3.0923,3.0856,3.0855,3.0855,0,0,0,0,0,0,0,0,0,0,0,0,0,3.1125,3.1124,3.1078,3.1077,3.1076,3.1014,3.1013,3.1012,3.0928,3.0926,3.0924,3.0923,3.0856,3.0855,3.0855,0,0,0,0,0,0,0,0,0,0,0,0,0,3.1087,3.1124,3.1078,3.1026,3.1021,3.1014,3.1013,3.1012,3.0928,3.0926,3.0924,3.0922,3.0856,3.0855,3.0855,3.0892,0,0,3.0852,3.0852,0,0,0,0,0,0,0,0,3.1089,3.1085,3.1035,3.103,3.1024,3.0976,3.1005,3.0972,3.0928,3.0963,3.0923,3.0921,3.0897,3.0893,3.0886,3.0889,3.0886,3.0852,3.0852,3.0851,3.0851,0,0,0,0,0,0,0,3.1092,3.1088,3.1052,3.1034,3.1028,3.1006,3.0998,3.0998,3.0943,3.096,3.0954,3.0948,3.0894,3.0887,3.0883,3.0885,3.0852,3.0852,3.0851,3.0851,3.0915,3.0917,0,0,0,0,0,0,3.1102,3.109,3.1054,3.105,3.1052,3.1007,3.0998,3.0994,3.0943,3.0933,3.0949,3.0944,3.0889,3.0884,3.0881,3.0921,3.0851,3.0851,3.085,3.0913,3.0915,3.0918,0,0,0,0,0,0,3.1104,3.11,3.1057,3.1069,3.1061,3.1008,3.1004,3.0994,3.0986,3.0935,3.0924,3.0952,3.0887,3.0882,3.089,3.0917,3.085,3.085,3.091,3.0913,3.0916,3.1002,0,0,0,0,0,0,3.1105,3.1101,3.1115,3.107,3.1061,3.1068,3.1006,3.0994,3.0985,3.0977,3.0934,3.0925,3.0885,3.0891,3.0889,3.0915,3.0849,3.0907,3.0912,3.0915,3.0996,3.1007,3.1017,0,0,0,0,0,3.1107,3.1141,3.1116,3.1112,3.1078,3.107,3.1065,3.1019,3.0988,3.1001,3.0968,3.0926,3.0915,3.0893,3.089,3.0916,3.0905,3.091,3.0915,3.0991,3.1005,3.1017,0,0,0,0,0,0,3.1191,3.1134,3.1106,3.1126,3.1104,3.1056,3.1071,3.1035,3.102,3.1013,3.0956,3.0947,3.0962,3.0939,3.0916,3.0949,3.0904,3.0908,3.0963,3.0976,3.0986,3.0991,3.0848,0,0,0,0,0,3.1212,3.121,3.1161,3.1183,3.1174,3.1125,3.1119,3.1086,3.106,3.1049,3.1017,3.0992,3.0983,3.0978,3.0967,3.0993,3.0981,3.1009,3.1019,3.1028,3.1032,3.1044,3.1055,3.0933,3.0933,3.0933,0,0,3.1254,3.1223,3.1226,3.1199,3.1178,3.1177,3.1117,3.1119,3.1118,3.1049,3.1055,3.1031,3.0999,3.1017,3.1022,3.0998,3.1064,3.1034,3.1042,3.1041,3.105,3.1062,3.1072,3.0937,3.0936,3.0936,0,0,3.1332,3.1309,3.1325,3.1305,3.1273,3.124,3.1244,3.1202,3.1183,3.1188,3.1137,3.1134,3.112,3.1099,3.1087,3.1158,3.1119,3.1156,3.121,3.1222,3.1231,3.124,3.1264,3.1274,3.116,3.116,3.1161,0,3.1389,3.1386,3.1337,3.1343,3.1332,3.1271,3.1287,3.127,3.1236,3.123,3.1204,3.1184,3.1159,3.117,3.1188,3.118,3.1182,3.116,3.1234,3.1242,3.1249,3.1272,3.1281,3.1165,3.1165,3.1164,3.1164,0,3.1457,3.1457,3.1473,3.1443,3.1435,3.1445,3.1397,3.1395,3.1362,3.1332,3.1338,3.1305,3.1286,3.1287,3.1255,3.1294,3.128,3.1245,3.1198,3.1266,3.1286,3.1295,3.1172,3.117,3.1169,3.1168,0,0,3.1585,3.1528,3.1535,3.152,3.1481,3.1479,3.1487,3.1469,3.1468,3.1447,3.1451,3.144,3.1408,3.1394,3.1359,3.137,3.1427,3.1333,3.1332,3.1352,3.1468,3.1494,3.1505,3.1401,3.1403,3.1404,3.147,0,3.1654,3.1665,3.1621,3.1643,3.1641,3.1584,3.159,3.1566,3.1539,3.1533,3.1501,3.1495,3.1453,3.1444,3.1452,3.1419,3.145,3.1413,3.1404,3.1404,3.1413,3.1516,3.1543,3.1607,3.1478,3.1479,3.148,0,3.1737,3.1721,3.1743,3.1703,3.17,3.1707,3.1687,3.1683,3.1654,3.1633,3.1619,3.1579,3.1582,3.1539,3.1543,3.1519,3.1512,3.1496,3.1497,3.1494,3.1446,3.1515,3.1626,3.1636,3.1492,3.1491,3.149,0,3.1827,3.1811,3.1822,3.1811,3.1765,3.1771,3.1752,3.1722,3.1714,3.1696,3.1691,3.1674,3.1664,3.1652,3.1608,3.158,3.1617,3.1569,3.1598,3.16,3.1608,3.1608,3.172,3.1605,3.1605,3.1605,3.1605,0,3.1909,3.1925,3.1862,3.1869,3.1884,3.1834,3.185,3.1825,3.1799,3.1799,3.1748,3.1749,3.1691,3.1686,3.1652,3.166,3.1656,3.1638,3.1629,3.1643,3.1645,3.1637,3.1631,3.1607,3.1607,3.1606,3.1606,0,3.2012,3.1971,3.1979,3.1935,3.1924,3.1938,3.1899,3.1903,3.1872,3.1873,3.187,3.1822,3.1813,3.1768,3.1748,3.1725,3.1745,3.1726,3.1755,3.1748,3.178,3.1778,3.189,3.1902,3.1781,3.1782,3.1783,0,3.2067,3.2078,3.2035,3.2032,3.2015,3.2011,3.2003,3.1954,3.1947,3.1916,3.1924,3.1911,3.1898,3.1886,3.1848,3.1832,3.1813,3.1854,3.181,3.1824,3.1813,3.1813,3.1813,3.1863,3.1864,3.1866,3.1867,0,3.2169,3.2148,3.2139,3.2123,3.2115,3.2099,3.2081,3.2081,3.2026,3.2022,3.2012,3.2002,3.1982,3.197,3.1948,3.1927,3.1888,3.1881,3.1887,3.1901,3.1916,3.1908,3.178,3.1878,3.1877,3.1876,3.1876,3.1875,3.2249,3.2255,3.2227,3.2218,3.2199,3.2183,3.2185,3.2155,3.2146,3.2127,3.2098,3.2093,3.2064,3.203,3.2013,3.2007,3.1985,3.1993,3.1995,3.1998,3.2005,3.1918,3.2003,3.2002,3.2002,3.2002,3.2001,0,3.2347,3.2326,3.2319,3.2295,3.2288,3.2253,3.2231,3.2227,3.2223,3.22,3.2189,3.2178,3.2165,3.2127,3.2111,3.2113,3.2095,3.2111,3.211,3.2105,3.2026,3.2023,3.2126,3.2126,3.2126,3.2126,3.2126,3.2126,3.2398,3.2407,3.2383,3.2383,3.2361,3.2356,3.2346,3.2331,3.2312,3.2303,3.2293,3.2268,3.2239,3.222,3.2207,3.2195,3.2191,3.2213,3.2196,3.2123,3.2111,3.21,3.2096,3.2213,3.2213,3.2276,3.2276,3.2277]}]]